Location: Kapla
(46.2483°N, 15.0094°E)
Time: 21:38:14
(UTC+00:00)

Resurs 01 Rocket - Pass Details

Date: 03 March 2021
Orbit: 635 x 643 km, 98.0° (Epoch: 22 April)

Event Time Altitude Azimuth Distance (km) Brightness Sun altitude
Exits shadow 19:12:40 31° 13° (NNE) 1,119 2.8 -25.3°
Drops below altitude 10° 19:15:11 10° 356° (N) 2,034 4.4 -25.7°
Sets 19:17:26 0° 352° (N) 2,948 5.4 -26.1°
